Lake Mexia Weather Center

Moon Phase Calendar



Lake Mexia Water Level
Online Cameras

 


      

Current Conditions in Springfield
6/25/2021 5:25:47 AM

77°F
Feels Like 79
Clouds
Humidity
94%
Pressure
29.94"
Wind
4.6 mph (S)
Dew Point
76°F
UV Index
0/10 (Low)
Visibility
6 mi

Hourly Forecast

Date & Time Fri, Jun 25
5:00 AM
Fri, Jun 25
6:00 AM
Fri, Jun 25
7:00 AM
Fri, Jun 25
8:00 AM
Fri, Jun 25
9:00 AM
Fri, Jun 25
10:00 AM
Fri, Jun 25
11:00 AM
Fri, Jun 25
12:00 PM
Fri, Jun 25
1:00 PM
Fri, Jun 25
2:00 PM
Fri, Jun 25
3:00 PM
Fri, Jun 25
4:00 PM
Fri, Jun 25
5:00 PM
Fri, Jun 25
6:00 PM
Fri, Jun 25
7:00 PM
Fri, Jun 25
8:00 PM
Fri, Jun 25
9:00 PM
Fri, Jun 25
10:00 PM
Fri, Jun 25
11:00 PM
Sat, Jun 26
12:00 AM
Sat, Jun 26
1:00 AM
Sat, Jun 26
2:00 AM
Sat, Jun 26
3:00 AM
Sat, Jun 26
4:00 AM
Sat, Jun 26
5:00 AM
Sat, Jun 26
6:00 AM
Sat, Jun 26
7:00 AM
Sat, Jun 26
8:00 AM
Sat, Jun 26
9:00 AM
Sat, Jun 26
10:00 AM
Sat, Jun 26
11:00 AM
Sat, Jun 26
12:00 PM
Sat, Jun 26
1:00 PM
Sat, Jun 26
2:00 PM
Sat, Jun 26
3:00 PM
Sat, Jun 26
4:00 PM
Sat, Jun 26
5:00 PM
Sat, Jun 26
6:00 PM
Sat, Jun 26
7:00 PM
Sat, Jun 26
8:00 PM
Sat, Jun 26
9:00 PM
Sat, Jun 26
10:00 PM
Sat, Jun 26
11:00 PM
Sun, Jun 27
12:00 AM
Sun, Jun 27
1:00 AM
Sun, Jun 27
2:00 AM
Sun, Jun 27
3:00 AM
Sun, Jun 27
4:00 AM
Condition
Clouds

Clouds

Clouds

Clouds

Clouds

Clouds

Clouds

Clouds

Clouds

Clear

Clear

Clear

Clear

Clear

Clear

Clear

Clear

Clear

Clear

Clear

Clear

Clear

Clear

Clear

Clear

Clear

Clear

Clouds

Clouds

Clouds

Clouds

Clouds

Clouds

Clouds

Clouds

Clouds

Clouds

Clouds

Rain

Clouds

Clouds

Clouds

Clouds

Clouds

Clouds

Clouds

Clouds

Clouds
Temperature 77°F77°F76°F77°F79°F82°F85°F88°F90°F91°F92°F92°F92°F90°F86°F83°F81°F81°F79°F78°F77°F76°F74°F73°F73°F73°F73°F76°F79°F82°F84°F87°F89°F90°F91°F91°F91°F90°F86°F81°F79°F78°F78°F76°F75°F74°F73°F72°F
Feels Like 79°F79°F78°F79°F79°F88°F93°F95°F97°F98°F99°F99°F99°F99°F94°F89°F86°F85°F79°F79°F78°F77°F76°F75°F74°F74°F74°F77°F79°F87°F89°F92°F93°F95°F95°F95°F95°F96°F93°F86°F79°F79°F79°F77°F76°F75°F74°F73°F
Cloudiness 90%73%59%67%67%60%56%54%48%4%4%3%2%2%2%0%0%0%0%0%0%0%1%1%0%1%4%21%16%20%21%19%18%14%18%22%26%32%35%32%26%24%22%21%21%41%24%20%
Visibility 6 mi6 mi6 mi6 mi6 mi6 mi6 mi6 mi6 mi6 mi6 mi6 mi6 mi6 mi6 mi6 mi6 mi6 mi6 mi6 mi6 mi6 mi6 mi6 mi6 mi6 mi6 mi6 mi6 mi6 mi6 mi6 mi6 mi6 mi6 mi6 mi6 mi6 mi6 mi6 mi6 mi6 mi6 mi6 mi6 mi6 mi6 mi6 mi
Precipitation 0%0%0%2%1%0%0%0%0%0%0%0%0%0%0%0%0%0%0%0%0%0%0%0%0%0%0%0%0%0%0%0%0%0%0%1%1%3%31%4%0%0%0%0%0%2%15%15%
Humidity 94%95%96%94%88%80%71%61%55%52%50%49%52%60%65%72%76%76%77%81%83%85%89%93%95%96%96%90%81%73%65%58%53%50%48%46%47%53%64%76%78%78%78%84%88%91%94%96%
Dew Point 76°F75°F75°F75°F75°F75°F74°F73°F72°F71°F71°F71°F72°F74°F73°F73°F73°F72°F72°F72°F72°F71°F71°F71°F71°F71°F72°F73°F73°F72°F71°F70°F70°F69°F68°F68°F68°F71°F73°F73°F72°F71°F70°F71°F71°F71°F71°F71°F
Pressure 29.94"29.94"29.94"29.97"29.97"29.97"29.94"29.94"29.94"29.91"29.88"29.85"29.85"29.83"29.8"29.8"29.83"29.85"29.88"29.91"29.91"29.91"29.88"29.88"29.88"29.88"29.91"29.91"29.91"29.91"29.91"29.91"29.91"29.88"29.88"29.85"29.83"29.83"29.83"29.83"29.83"29.85"29.88"29.91"29.91"29.91"29.91"29.91"
Wind Speed 9 mph7.3 mph8.1 mph11.1 mph12.7 mph13.4 mph13.5 mph13.3 mph13.2 mph13 mph12.7 mph13.6 mph14.1 mph14 mph13.4 mph12 mph10.8 mph13.2 mph13.2 mph13 mph12.2 mph10.5 mph11.1 mph11.2 mph11.8 mph10.9 mph11.1 mph13.4 mph15.5 mph15.6 mph16.1 mph14.6 mph13.3 mph12.8 mph11.9 mph11.4 mph10.9 mph9.5 mph11.5 mph11.9 mph11.6 mph10.9 mph12.2 mph10.4 mph8.9 mph8.6 mph6.5 mph5.9 mph
Wind
Direction
179°
S
178°
S
172°
S
185°
S
194°
SSW
197°
SSW
195°
SSW
189°
S
186°
S
182°
S
179°
S
174°
S
175°
S
180°
S
181°
S
173°
S
166°
SSE
173°
S
179°
S
184°
S
185°
S
186°
S
172°
S
174°
S
173°
S
178°
S
174°
S
173°
S
182°
S
187°
S
184°
S
185°
S
183°
S
178°
S
175°
S
172°
S
171°
S
168°
SSE
149°
SSE
141°
SE
144°
SE
145°
SE
146°
SE
158°
SSE
160°
SSE
164°
SSE
170°
S
154°
SSE

Daily Forecast

Date High Low Precip. Humidity
Today
Jun 25

Clouds
92 °F
76 °F
2%
55%
Saturday
Jun 26

Rain
91 °F
73 °F
31%
53%
Sunday
Jun 27

Rain
88 °F
72 °F
98%
59%
Monday
Jun 28

Rain
77 °F
69 °F
86%
84%
Tuesday
Jun 29

Rain
84 °F
70 °F
99%
67%
Wednesday
Jun 30

Rain
88 °F
70 °F
62%
63%
Thursday
Jul 1

Clouds
88 °F
72 °F
45%
58%
Friday
Jul 2

Rain
89 °F
73 °F
45%
58%
Saturday
Jul 3

Rain
88 °F
74 °F
100%
67%
Sunday
Jul 4

Rain
85 °F
74 °F
95%
68%
Monday
Jul 5

Rain
79 °F
73 °F
100%
84%
Tuesday
Jul 6

Rain
84 °F
73 °F
100%
88%
Wednesday
Jul 7

Rain
90 °F
74 °F
98%
60%
Thursday
Jul 8

Clouds
90 °F
73 °F
0%
58%
Friday
Jul 9

Clouds
92 °F
74 °F
0%
54%
Saturday
Jul 10

Clouds
92 °F
73 °F
0%
49%

Temperature 8-14 Day Outlook



Precipitation 8-14 Day Outlook




Quick Links
Lake Mexia News
Lake Mexia Photos
Lake Mexia Videos




About Us
Contact Us
Site Map
Search Site
Advertise With Us
   
Mexia.LakesOnline.com
THE LAKE MEXIA WEBSITE

Copyright 2021, Lakes Online
Privacy    |    Legal